FREGAT DEB, 40078

Orbit data source: Space-Track

FREGAT DEB, 40078 is space debris in SSO originally from a launch on Tue, 08 Jul 2014 UTC launched from the Tyuratam Missile And Space Complex (TTMTR). Debris objects in space refer to the collection of defunct objects orbiting the Earth. Examples of debris include non-operational satellites, rocket bodies, and fragments generated from explosions, collisions, or faulty payload assembly.

Loading next visibility...
Identifier
40078, 2014-037K
Orbit
SSO
Country
Flag of CISCIS
Related business
Manufacturer
Lavochkin
Mission
Spacecraft
Bus & Motor
Unknown
Mass
Unknown
Launch date (UTC)
2014-07-08 (11 years ago)
Launch vehicle
Unknown
Launch site
Tyuratam Missile And Space Complex (TTMTR)
Object type
Payload
Rocket body
Debris
Shape & HBR
Irr + 1 Truss, 1.5 m
Radar Cross Section
7.500 m², Large (>1 m²)

Expand to show TLE details & history
Last TLE update: 22 hours ago

TLE from 22 hours ago
0 FREGAT DEB
1 40078U 14037K   25301.52007247  .00001081  00000-0  23179-3 0  9997
2 40078  98.0434 282.5023 0132496  67.0773 294.4346 14.55260241599427
Epoch: 2025-10-28T12:28Z
TLE epoch observation values (Epoch: 2025-10-28T12:28:54.261Z)
Latitude
-0.00002°
Longitude
58.16983°
Altitude
673.695 km
Speed
7.54 km/s
True Right ascension
18h 50m 00s
True Declination
0° 00' 00"
Sunlit
Object was in daylight at epoch
Visualization orbit readout
Latitude
Unknown
Longitude
Unknown
Altitude
Unknown
Speed
Unknown
Apparent Right ascension
Unknown
Apparent Declination
Unknown
Sunlit
N/A
Visualization observer readout
Local Sidereal Time
05:30:41
Azimuth
Unknown
Elevation
Unknown
Doppler factor
Unknown
Orbital elements
Apogee altitude
799.456 km
Perigee altitude
611.743 km
Semi-major axis
7,083.736 km
Eccentricity
0.01325
Inclination
98.0434°
RAAN
282.5023°
Arg. of periapsis
67.0773°
True anomaly
293.0429°
Mean anomaly
294.4346°
Eccentric anomaly
293.73969°
Mean motion
3.6404 °/min
Orbital period
98.89 mins
BSTAR
0.00023179
Loading maneuver chart data...
Computing Atmospheric mass density...
Loading historical data...
Loading historical data...
Loading historical data...
Loading historical data...
Loading historical data...
Loading historical data...
Loading historical data...

Documentation

Showing up to 5 results
|